Wind_Speed
5 4 6 10 4 5 9 9 8 8 5 2 1 3 1 3 2 1 7 12 13 13 12 12 12 13 14 13 11 10 9 9 8 8 10 11 11 12 14 16 18 19 17 11 7 4 1 0 1
6 7 9 7 3 12 10 7 9 6 5 5 2 1 2 3 2 2 11 11 14 14 13 12 12 14 14 12 10 9 8 7 8 9 10 11 12 15 17 18 18 20 18 12 7 4 1 1 1
9 10 7 3 2 10 12 6 5 6 9 4 3 2 2 2 4 11 12 11 12 15 14 13 13 14 14 11 9 8 7 6 7 9 11 12 13 14 16 17 19 20 17 11 6 3 3 2 0
9 6 3 5 10 7 7 4 3 5 8 7 2 2 2 9 11 14 14 13 13 13 13 13 14 14 13 11 9 7 6 5 6 8 9 10 12 14 16 18 19 20 15 9 5 3 2 1 1
9 7 4 6 8 6 3 1 2 5 7 7 4 1 3 14 16 14 14 15 14 13 13 13 13 14 13 10 8 6 5 3 5 7 8 10 12 14 16 19 21 20 14 10 6 4 4 3 2
6 7 6 9 8 4 2 2 1 3 4 8 2 6 5 15 15 15 16 15 15 14 13 13 13 14 13 10 8 6 3 2 4 6 8 10 12 14 16 20 22 19 14 10 7 5 5 4 3
7 6 3 5 5 2 2 4 1 2 3 3 3 7 7 16 15 15 15 15 14 14 13 13 13 13 12 10 6 4 1 2 5 8 10 11 11 13 15 18 19 16 12 7 6 8 8 5 4
8 5 4 5 4 3 4 4 5 1 7 9 4 3 6 13 15 15 14 13 13 13 13 13 13 13 11 9 5 2 1 4 7 9 10 11 11 13 17 18 18 16 10 8 5 3 5 6 6
12 7 5 4 4 3 4 6 6 6 7 8 7 5 7 11 14 14 12 12 13 14 14 14 14 13 11 9 5 2 2 4 6 8 10 10 12 14 17 19 18 14 9 6 6 4 3 4 3
11 8 5 2 3 4 5 8 4 2 4 7 7 1 7 12 14 13 12 13 13 14 14 14 13 13 10 8 5 2 1 4 5 8 10 11 12 12 12 14 15 12 9 6 5 6 4 3 4
11 7 5 1 3 7 7 9 6 4 2 2 4 3 7 13 16 17 16 14 14 15 14 14 12 10 9 7 4 2 1 2 4 6 8 10 11 11 12 13 14 12 8 8 6 4 3 3 2
11 10 5 2 2 7 9 10 5 6 2 3 3 4 5 10 13 16 16 16 15 15 15 14 13 11 10 7 5 3 2 3 4 6 7 7 9 11 11 8 7 8 7 5 5 2 3 4 5
13 12 6 4 2 7 10 9 7 7 5 3 3 5 7 12 16 18 18 17 16 14 13 13 12 10 9 8 6 3 2 2 3 6 9 8 7 9 10 8 8 8 7 6 6 3 3 4 5
15 13 9 7 4 8 12 10 10 9 7 5 2 3 8 11 14 16 17 17 15 14 13 12 10 9 8 9 8 5 2 0 3 6 8 9 8 5 8 7 6 6 7 7 6 5 3 5 3
9 12 12 9 8 10 13 15 13 15 7 7 5 3 9 10 13 15 15 15 15 15 13 12 11 10 10 9 8 6 4 1 2 5 7 9 9 6 5 2 4 4 6 6 7 6 3 3 2
14 13 14 11 8 12 15 13 13 10 14 8 8 6 6 11 13 17 18 17 17 15 14 13 12 11 10 9 8 7 6 4 3 4 6 7 9 7 3 1 1 1 4 7 8 8 8 7 4
17 18 18 8 10 12 16 9 12 12 14 12 11 9 7 9 19 21 21 20 18 17 16 14 12 11 11 10 10 9 7 8 7 7 7 7 7 5 3 2 2 2 2 3 4 5 5 4 4
21 22 14 15 14 15 17 11 11 12 14 14 13 13 12 8 11 17 22 22 21 21 19 18 16 13 12 12 11 9 8 10 10 10 9 9 7 5 4 4 4 3 1 3 4 5 4 4 3
13 18 20 15 13 17 19 19 13 12 12 14 16 17 16 13 10 17 18 21 25 24 22 18 15 12 11 10 9 9 10 12 13 12 12 12 9 7 6 6 6 5 5 7 7 6 6 6 7
13 16 17 13 11 17 19 20 19 19 18 16 17 19 18 19 18 17 20 20 24 24 21 20 16 15 12 11 11 11 12 13 14 13 14 15 11 8 8 8 9 8 7 6 8 9 9 9 9
16 17 18 17 14 14 15 20 21 21 22 18 17 21 22 25 25 20 17 17 19 25 25 23 19 17 15 13 13 13 13 11 13 15 16 16 13 11 9 9 10 11 13 13 12 12 14 16 17
17 18 16 15 15 20 21 21 22 23 23 23 19 16 16 26 30 27 22 18 16 17 23 23 20 17 17 17 16 13 11 12 14 17 17 16 14 14 12 12 13 11 11 15 18 22 21 19 19
15 15 18 18 19 21 17 18 22 16 23 27 25 28 22 20 30 31 29 25 17 17 20 18 19 19 19 18 16 15 13 16 17 17 18 16 15 17 18 18 17 16 17 18 20 22 24 26 22
10 9 11 15 20 23 27 24 25 23 21 21 21 24 25 19 26 31 34 31 26 24 22 21 20 19 18 17 16 15 16 17 20 18 20 18 19 20 21 22 22 22 23 24 25 30 33 29 26
11 11 13 14 17 18 27 32 25 26 19 22 24 22 21 22 19 24 34 37 37 33 29 25 23 22 20 17 17 16 17 19 21 20 21 21 21 22 21 22 25 25 26 29 27 27 27 28 31
15 16 17 10 12 17 20 16 25 23 21 25 24 24 28 28 24 22 26 33 39 39 36 31 28 27 26 22 19 19 19 22 23 22 22 24 24 23 21 24 25 26 28 33 25 26 24 31 35
12 16 14 16 18 13 13 12 13 15 14 13 13 17 22 28 26 26 26 28 33 35 45 42 38 34 32 33 29 21 19 21 19 23 22 24 25 23 22 23 25 25 29 27 25 25 27 32 31
13 6 10 16 13 16 14 14 15 8 12 15 14 14 17 16 19 21 24 24 31 32 48 50 43 42 41 41 25 33 23 19 21 23 26 24 24 22 23 23 24 24 24 20 22 25 30 33 37
7 13 14 13 12 10 11 12 9 10 12 14 13 14 19 19 19 19 23 24 25 37 43 42 46 49 51 47 24 13 16 20 22 25 24 22 22 20 21 21 22 21 21 24 27 30 34 37 38
8 9 8 13 12 14 14 20 17 17 20 18 19 18 21 20 20 23 25 25 25 25 28 32 37 41 26 35 24 15 20 18 20 26 22 20 20 21 22 21 20 22 26 30 33 33 36 35 33
Wind_Direction
110 92 91 113 101 107 76 55 46 30 28 11 186 92 149 156 171 197 172 155 144 140 139 137 131 125 117 110 101 94 93 89 73 58 47 39 33 25 18 14 9 5 357 349 343 351 350 278 264
115 101 116 119 200 94 70 53 35 19 15 13 3 326 4 256 211 131 150 149 145 142 141 134 130 127 122 115 105 98 95 84 61 46 34 27 21 18 13 10 6 1 357 358 360 2 32 140 150
123 117 104 134 75 74 78 58 37 29 7 43 354 310 289 233 184 145 145 143 148 143 136 133 134 132 128 121 112 107 103 81 57 36 26 21 17 16 10 6 5 2 360 6 9 22 36 44 91
147 122 94 226 100 94 74 75 70 47 0 6 38 347 254 181 159 146 145 145 146 138 137 137 137 136 133 129 118 111 107 82 51 31 23 17 12 11 8 7 7 4 5 5 8 30 52 57 130
165 157 180 153 113 99 85 89 64 341 353 342 17 110 165 162 152 145 146 148 146 142 141 136 142 141 139 134 124 121 111 76 38 24 17 10 6 6 6 10 9 6 4 359 7 15 50 67 85
174 171 188 157 123 125 117 147 173 354 352 338 27 128 167 164 160 153 152 152 148 145 141 142 145 145 143 141 136 134 116 55 21 13 6 1 360 4 5 9 10 5 7 20 42 63 65 75 90
168 177 152 144 139 144 185 181 36 298 7 4 86 132 180 175 166 160 156 155 153 148 147 147 146 148 148 145 143 136 107 21 4 1 357 353 356 360 3 6 9 9 17 18 42 63 65 60 66
182 180 205 196 185 155 205 198 235 85 324 339 107 307 189 191 177 166 159 158 159 157 153 149 149 152 151 149 151 162 16 0 359 353 348 347 354 356 355 357 4 13 18 16 22 50 70 66 76
183 187 202 196 212 168 194 190 231 301 327 351 5 133 200 187 187 171 165 166 165 163 159 156 155 154 154 156 161 168 343 345 355 350 349 350 351 347 350 350 356 13 26 22 22 40 68 76 71
176 203 184 208 218 165 188 189 268 281 334 12 13 110 137 146 166 161 161 164 166 165 159 157 157 155 155 159 160 155 342 345 3 358 354 356 345 351 354 350 355 17 24 42 31 33 35 31 31
194 197 197 270 220 185 190 187 235 174 232 294 36 29 136 151 155 156 158 160 165 163 157 155 153 150 148 148 150 138 65 22 13 6 -0 4 13 12 353 355 5 22 28 46 46 33 19 21 34
188 199 191 225 225 169 182 187 213 182 234 248 346 120 145 149 154 152 160 158 159 157 157 155 152 156 155 151 148 134 103 39 13 11 1 6 0 352 1 356 9 21 47 55 75 96 54 39 32
194 198 209 228 157 191 192 198 207 199 270 276 351 142 157 157 161 162 162 161 160 158 161 161 160 161 159 154 150 142 118 49 18 9 12 6 347 352 344 359 17 28 49 60 76 92 99 85 72
220 212 225 231 245 236 199 200 211 216 260 255 284 184 170 179 175 172 167 165 164 163 167 170 170 169 175 170 166 172 171 19 6 3 4 360 346 340 310 343 355 47 56 65 78 89 102 110 99
208 212 226 248 261 235 199 214 218 233 242 244 246 245 193 188 186 179 178 177 175 175 177 180 185 187 188 188 185 186 206 244 346 347 348 344 343 324 296 332 3 41 69 74 74 73 63 85 87
211 216 216 224 248 206 191 194 198 230 230 243 239 246 229 207 192 193 193 195 193 189 191 192 194 200 198 201 205 210 219 247 289 308 326 334 338 332 308 240 266 88 95 86 74 62 46 32 28
211 214 217 214 222 195 196 211 194 222 229 222 242 235 243 227 207 211 212 207 203 203 205 201 201 210 214 215 223 229 239 259 269 285 303 315 326 317 293 259 243 177 102 49 19 28 30 30 8
211 219 216 219 217 196 207 204 199 221 219 223 252 236 231 241 242 225 223 220 210 206 205 205 204 210 223 228 235 241 248 258 268 275 283 290 298 290 279 256 234 209 259 331 345 337 325 320 325
236 223 221 220 212 206 215 217 217 217 218 223 228 241 239 237 224 222 225 225 220 217 212 203 201 209 220 229 238 251 260 266 267 267 271 273 285 284 280 259 230 233 283 301 316 333 323 302 291
226 225 220 205 214 213 220 225 230 235 241 237 236 235 239 237 226 226 229 233 231 225 217 208 205 215 222 227 235 248 255 268 267 271 272 269 265 268 265 267 249 257 283 316 314 320 313 303 294
223 224 223 229 214 214 221 232 233 236 242 248 245 239 236 226 239 236 229 227 230 230 223 217 216 223 225 233 244 251 255 266 272 267 267 266 262 263 262 269 276 266 277 290 299 297 305 304 298
231 228 224 227 214 223 222 245 231 237 246 253 256 256 263 232 222 236 236 234 231 225 216 214 211 218 224 242 252 263 268 270 274 272 270 273 267 266 266 263 268 270 273 283 288 288 287 288 293
232 229 226 230 233 243 232 243 251 219 242 247 256 263 272 254 228 225 233 237 238 223 220 210 214 219 222 238 249 259 277 282 273 274 273 276 276 266 267 266 258 262 280 279 280 285 287 288 289
210 211 213 221 234 237 241 238 251 238 243 249 261 264 261 271 239 232 228 230 230 227 228 219 212 212 219 230 235 246 265 275 274 272 274 270 267 265 263 264 268 267 280 273 293 274 292 291 291
204 212 221 217 222 242 244 244 249 257 257 257 267 260 259 260 257 247 235 232 229 228 230 227 220 215 219 230 235 241 256 270 276 277 273 274 269 270 264 266 269 273 279 285 288 299 279 287 291
223 222 245 248 247 247 220 244 256 261 258 258 259 253 246 258 270 264 253 239 234 225 230 232 223 217 218 219 227 236 251 265 271 277 277 277 273 273 272 277 275 277 280 281 288 298 288 279 283
218 230 244 266 262 272 249 225 251 252 255 265 274 263 258 253 258 262 260 243 229 229 231 226 228 224 220 219 204 212 243 261 273 281 276 272 272 274 272 275 273 278 280 276 291 286 282 283 285
223 251 237 233 262 257 255 248 266 243 263 268 266 272 258 247 256 268 273 264 235 224 235 230 230 230 232 235 198 232 220 250 266 276 274 269 270 273 278 279 276 281 283 284 279 282 282 284 286
210 234 237 267 278 285 273 262 262 252 268 282 272 276 254 249 262 273 288 288 263 244 243 237 233 238 240 231 244 262 239 238 265 278 268 262 267 274 277 279 276 275 272 279 281 283 286 289 292
247 257 249 255 246 246 279 277 275 277 280 274 274 284 263 254 261 272 285 291 260 242 245 239 241 247 261 264 300 240 214 222 262 263 260 265 274 278 278 277 275 276 275 280 286 293 296 293 295
Height
3184 3184 3184 3186 3192 3187 3188 3189 3188 3186 3186 3183 3183 3184 3185 3183 3184 3186 3183 3183 3185 3187 3188 3189 3190 3191 3192 3193 3195 3195 3196 3196 3197 3197 3196 3195 3195 3193 3191 3189 3187 3184 3182 3180 3178 3178 3178 3178 3179
3185 3185 3186 3187 3187 3183 3190 3189 3188 3186 3183 3182 3182 3182 3183 3183 3182 3182 3183 3184 3185 3186 3188 3189 3191 3192 3193 3195 3196 3197 3198 3198 3199 3198 3197 3196 3195 3193 3191 3189 3187 3184 3180 3178 3177 3177 3177 3177 3177
3186 3186 3189 3189 3186 3186 3189 3190 3188 3185 3183 3183 3182 3181 3181 3181 3182 3182 3183 3184 3186 3187 3189 3190 3192 3193 3195 3196 3198 3198 3199 3199 3199 3199 3198 3197 3195 3194 3192 3190 3187 3184 3181 3179 3177 3177 3177 3177 3178
3187 3189 3191 3187 3187 3191 3191 3191 3188 3186 3184 3184 3183 3182 3181 3181 3181 3182 3183 3185 3187 3188 3190 3191 3193 3194 3196 3197 3198 3199 3199 3200 3200 3200 3199 3197 3196 3194 3192 3190 3187 3184 3181 3179 3178 3176 3176 3177 3177
3187 3189 3190 3188 3190 3192 3191 3190 3190 3188 3186 3184 3184 3183 3181 3181 3182 3183 3184 3186 3188 3190 3191 3192 3194 3195 3197 3198 3199 3200 3200 3201 3201 3200 3199 3197 3196 3194 3193 3190 3187 3183 3180 3178 3177 3177 3177 3176 3177
3189 3189 3188 3186 3190 3192 3192 3190 3190 3190 3188 3185 3184 3183 3182 3183 3184 3184 3186 3187 3189 3191 3192 3193 3195 3196 3197 3199 3200 3200 3201 3201 3201 3200 3198 3197 3196 3194 3192 3191 3187 3183 3181 3178 3177 3176 3176 3176 3176
3188 3190 3188 3188 3190 3191 3192 3191 3192 3191 3188 3187 3185 3186 3184 3184 3184 3186 3187 3189 3190 3191 3193 3194 3195 3197 3198 3199 3201 3201 3201 3201 3200 3200 3198 3197 3196 3194 3192 3191 3188 3184 3181 3179 3178 3177 3176 3177 3177
3186 3189 3189 3189 3189 3191 3191 3191 3190 3191 3189 3187 3186 3186 3183 3184 3185 3186 3188 3189 3191 3192 3193 3194 3196 3197 3199 3200 3201 3201 3201 3201 3201 3200 3198 3196 3195 3193 3192 3191 3188 3186 3183 3181 3180 3178 3178 3177 3177
3186 3189 3187 3188 3189 3190 3190 3191 3190 3190 3188 3187 3185 3185 3184 3183 3186 3187 3189 3190 3191 3192 3194 3195 3196 3198 3199 3200 3201 3202 3202 3201 3201 3199 3198 3196 3193 3192 3191 3190 3188 3187 3184 3182 3180 3180 3179 3178 3177
3185 3186 3187 3187 3188 3190 3191 3192 3190 3191 3189 3187 3185 3184 3183 3183 3186 3188 3189 3191 3192 3193 3194 3195 3197 3198 3200 3201 3201 3202 3201 3201 3200 3199 3198 3196 3194 3193 3191 3189 3188 3187 3185 3183 3182 3180 3180 3180 3180
3185 3186 3186 3187 3186 3187 3191 3192 3190 3192 3192 3189 3186 3185 3184 3185 3186 3188 3190 3191 3193 3194 3195 3196 3198 3199 3201 3201 3202 3202 3201 3201 3199 3199 3197 3196 3194 3192 3191 3188 3186 3185 3184 3182 3182 3182 3181 3181 3180
3184 3185 3185 3186 3185 3187 3190 3191 3190 3192 3192 3190 3187 3186 3185 3186 3187 3188 3190 3191 3193 3194 3195 3196 3198 3199 3200 3201 3201 3201 3201 3200 3200 3198 3197 3195 3194 3192 3190 3189 3187 3185 3184 3183 3181 3181 3181 3181 3180
3181 3185 3185 3184 3184 3186 3189 3190 3191 3191 3189 3189 3188 3187 3187 3187 3188 3189 3190 3192 3193 3195 3196 3197 3198 3199 3199 3199 3200 3201 3201 3200 3199 3197 3196 3194 3193 3192 3190 3188 3187 3186 3184 3182 3181 3181 3180 3180 3179
3181 3183 3184 3183 3184 3184 3188 3190 3189 3190 3189 3188 3187 3187 3187 3188 3189 3190 3191 3192 3194 3195 3196 3197 3198 3198 3199 3199 3199 3200 3200 3199 3198 3197 3195 3194 3192 3191 3189 3188 3186 3186 3185 3183 3182 3180 3179 3179 3179
3179 3181 3182 3183 3182 3183 3185 3188 3187 3188 3189 3188 3187 3187 3187 3188 3190 3191 3192 3193 3193 3194 3195 3197 3198 3198 3198 3198 3198 3199 3199 3198 3198 3197 3195 3194 3192 3190 3189 3188 3186 3186 3185 3184 3183 3181 3180 3178 3178
3178 3180 3181 3180 3180 3180 3183 3182 3186 3185 3187 3188 3187 3187 3186 3187 3190 3190 3191 3192 3192 3193 3195 3196 3197 3197 3197 3198 3198 3197 3197 3197 3197 3196 3195 3193 3191 3190 3188 3186 3185 3185 3185 3184 3183 3182 3181 3180 3178
3175 3175 3176 3178 3178 3179 3182 3182 3183 3184 3185 3187 3186 3187 3186 3186 3187 3188 3189 3190 3191 3192 3193 3194 3195 3195 3196 3196 3196 3196 3195 3195 3194 3194 3193 3192 3190 3188 3187 3186 3186 3185 3184 3183 3182 3181 3180 3179 3178
3170 3172 3173 3175 3177 3178 3180 3181 3182 3182 3183 3185 3184 3185 3185 3185 3185 3186 3187 3188 3189 3190 3191 3191 3192 3193 3194 3194 3194 3194 3194 3193 3193 3192 3191 3189 3189 3188 3187 3186 3185 3184 3183 3182 3181 3180 3179 3179 3178
3167 3168 3170 3173 3175 3176 3178 3179 3181 3181 3181 3182 3182 3182 3183 3184 3184 3184 3185 3186 3186 3187 3188 3189 3190 3191 3191 3192 3192 3193 3193 3192 3191 3190 3189 3187 3187 3187 3186 3185 3184 3184 3183 3181 3180 3179 3178 3176 3176
3168 3169 3168 3169 3171 3174 3175 3176 3178 3179 3177 3178 3180 3180 3180 3182 3181 3181 3182 3182 3183 3184 3186 3186 3187 3188 3189 3190 3190 3191 3191 3191 3190 3189 3188 3186 3185 3184 3184 3183 3183 3182 3181 3180 3178 3177 3176 3175 3174
3166 3167 3167 3169 3169 3170 3172 3172 3173 3174 3174 3174 3174 3176 3177 3177 3178 3179 3179 3179 3180 3181 3182 3183 3185 3186 3186 3188 3188 3189 3189 3189 3188 3187 3187 3186 3184 3181 3180 3181 3181 3180 3179 3177 3176 3175 3174 3173 3171
3163 3165 3166 3167 3168 3166 3167 3165 3166 3169 3169 3169 3170 3170 3170 3171 3172 3174 3175 3175 3176 3177 3178 3179 3180 3182 3184 3185 3185 3187 3187 3186 3186 3185 3184 3183 3182 3181 3178 3177 3177 3176 3175 3173 3172 3171 3169 3168 3166
3161 3161 3163 3165 3165 3164 3164 3165 3162 3163 3164 3165 3166 3165 3165 3165 3166 3167 3169 3171 3173 3173 3173 3175 3175 3177 3179 3181 3183 3184 3183 3183 3182 3182 3181 3181 3179 3179 3177 3174 3173 3172 3170 3168 3166 3165 3164 3163 3161
3158 3160 3161 3162 3163 3158 3160 3159 3156 3157 3158 3160 3161 3161 3161 3160 3160 3161 3164 3167 3169 3169 3170 3171 3172 3173 3175 3177 3179 3180 3181 3180 3179 3180 3179 3178 3177 3175 3173 3170 3170 3169 3166 3163 3161 3159 3157 3156 3155
3156 3158 3155 3155 3153 3150 3152 3151 3149 3154 3154 3155 3156 3157 3157 3156 3155 3156 3157 3159 3161 3163 3165 3167 3167 3169 3170 3173 3174 3176 3177 3177 3177 3176 3175 3175 3173 3171 3169 3168 3165 3163 3161 3159 3156 3153 3149 3149 3148
3152 3153 3148 3143 3141 3140 3142 3146 3148 3149 3150 3150 3148 3149 3150 3150 3150 3151 3151 3153 3156 3159 3159 3161 3162 3163 3164 3165 3167 3168 3170 3171 3172 3172 3169 3170 3171 3167 3164 3162 3161 3158 3156 3154 3149 3146 3145 3143 3141
3149 3150 3150 3147 3145 3145 3138 3141 3146 3146 3145 3145 3145 3144 3144 3144 3145 3145 3145 3145 3149 3152 3152 3154 3154 3155 3156 3154 3149 3156 3161 3164 3165 3167 3164 3163 3163 3163 3159 3155 3154 3152 3150 3147 3145 3141 3139 3137 3134
3147 3147 3148 3147 3143 3138 3136 3136 3139 3140 3142 3142 3142 3142 3139 3139 3139 3139 3139 3138 3139 3143 3140 3143 3149 3148 3145 3141 3132 3147 3151 3156 3159 3160 3159 3158 3158 3156 3154 3150 3148 3145 3144 3142 3139 3136 3133 3131 3128
3144 3143 3145 3144 3142 3136 3134 3133 3135 3138 3139 3139 3138 3138 3134 3134 3134 3133 3132 3131 3130 3130 3132 3137 3139 3137 3133 3132 3130 3142 3146 3149 3152 3154 3153 3153 3152 3150 3149 3145 3144 3140 3138 3136 3134 3131 3127 3123 3119
3141 3141 3141 3140 3138 3139 3138 3135 3134 3136 3136 3135 3132 3131 3129 3129 3129 3128 3127 3125 3123 3123 3126 3128 3131 3132 3132 3129 3118 3129 3132 3140 3144 3146 3148 3147 3147 3145 3143 3139 3137 3135 3134 3131 3128 3123 3119 3115 3110